{"data":{"norad_id":54045,"intl_designator":"2022-133D","name":"YAOGAN-36 02C","alt_names":[],"object_type":"PAYLOAD","status":"ACTIVE","operator":null,"country":"PRC","launch_date":"2022-10-14","launch_site_code":"XICLF","launch_vehicle":null,"mission":null,"orbit_class":"UNKNOWN","rcs_meters":null,"size_class":null,"mass_kg":null,"dimensions":null,"purposes":[],"wikipedia_slug":null,"has_3d_model":false,"image_url":null,"decayed_at":null,"tle_current":{"epoch":"2026-09-20T22:05:34.744992Z","epoch_age_seconds":119321,"freshness":"FRESH","line1":"1 54045U 22133D   26263.92054103  .00047729  00000+0  63794-3 0  9992","line2":"2 54045  34.9863 163.7375 0006677   1.3821 358.6921 15.56918325220111","mean_motion":15.56918325,"eccentricity":0.0006677,"inclination_deg":34.9863,"raan_deg":163.7375,"arg_perigee_deg":1.3821,"mean_anomaly_deg":358.6921,"bstar":0.00063794,"rev_number":22011,"period_min":92.490400869294,"perigee_km":392.05854188077,"apogee_km":401.10550166244,"semimajor_km":6774.7190217716,"source":"CELESTRAK","updated_at":"2026-09-21T09:00:09.350226Z"}}}